Content
SEND FEEDBACK

United States of America Flag

HAY SPRINGS, NEBRASKA


Home > North America > United States > Nebraska
Elevation: 1170 meters     Latitude: 42 41N     Longitude: 102 41W

WEATHER
 
SELECT A DAY
Number of Records: 185,645;   Date Range: 1/1/95 - 3/21/16
 
SHARE

PRINT THIS DATA

[ ← Previous Day ]
WEATHER ALMANAC - 30 JANUARY, 2013
[ Next Day → ]
[ °F ]   °C
Weather ElementAverageHighLow
Temperature-8.1 °C-1.1 °C (2:53 pm)-16.7 °C (4:53 am)
Dewpoint-11.7 °C-4.4 °C (8:53 pm)-19.4 °C (4:53 am)
Humidity75.7 %85 % (6:53 pm)69 % (1:53 pm)
Barometer1016.3 hPa1021 hPa (1:53 am)1012.9 hPa (1:53 pm)
Wind Speed17.2 km/h33.3 km/h (4:53 pm)
Wind Gust44.4 km/h (9:53 pm)
Weather ElementAverage
Visibility13.4 km
Wind DirectionWSW (255.8 °)

Weather ElementTotal
Precipitation1.52 mm
Heating Degree Days27.3 (Base 18.3)
Averaged from 24 records on 30 January, 2013
WEATHER CONDITIONS BREAKOUT
WIND DIRECTION BREAKOUT
WEATHER BY HOUR - 30 JANUARY, 2013
[ °F ]   °C
Local TimeTemperatureDewpointHumidityBarometerVisibilityWind DirectionWind SpeedGust SpeedPrecipitationEventsConditions
1:40 AM-13 °C-17 °C73 %1015.2 hPa11.3 kmWNW (300°)20.4 km/hMostly Cloudy
1:53 AM-13.3 °C-17.2 °C73 %1021 hPa14.5 kmWNW (300°)24.1 km/hScattered Clouds
2:53 AM-14.4 °C-17.8 °C76 %1020.3 hPa14.5 kmWNW (290°)16.7 km/hClear
3:53 AM-14.4 °C-17.8 °C76 %1019.6 hPa14.5 kmWest (270°)9.3 km/hClear
4:53 AM-16.7 °C-19.4 °C80 %1019.6 hPa12.9 kmSouth (190°)13 km/hClear
5:53 AM-14.4 °C-17.8 °C76 %1018.3 hPa12.9 kmWest (260°)16.7 km/hClear
6:53 AM-16.1 °C-18.9 °C80 %1017.9 hPa12.9 kmSouth (170°)11.1 km/hClear
7:53 AM-15 °C-17.8 °C80 %1017.3 hPa9.7 kmCalmHaze
8:53 AM-12.8 °C-16.1 °C77 %1016.9 hPa9.7 kmSSW (200°)7.4 km/hHaze
9:53 AM-10 °C-13.9 °C74 %1016.9 hPa11.3 kmWest (270°)9.3 km/hOvercast
10:53 AM-7.8 °C-12.2 °C71 %1016.3 hPa11.3 kmWNW (290°)14.8 km/hMostly Cloudy
11:53 AM-6.1 °C-10.6 °C71 %1015.2 hPa12.9 kmWNW (290°)20.4 km/hPartly Cloudy
12:53 PM-4.4 °C-8.9 °C71 %1014.2 hPa14.5 kmWNW (300°)14.8 km/hPartly Cloudy
1:53 PM-2.2 °C-7.2 °C69 %1012.9 hPa14.5 kmWNW (300°)14.8 km/h1.02 mmClear
2:53 PM-1.1 °C-6.1 °C69 %1012.9 hPa16.1 kmWNW (300°)20.4 km/h0.25 mmClear
3:53 PM-1.7 °C-6.1 °C72 %1012.9 hPa14.5 kmWNW (300°)14.8 km/h0.25 mmScattered Clouds
4:53 PM-1.1 °C-5.6 °C72 %1014.2 hPa14.5 kmWNW (300°)33.3 km/hClear
5:53 PM-2.8 °C-6.7 °C75 %1014.6 hPa16.1 kmWNW (300°)20.4 km/hClear
6:53 PM-7.2 °C-9.4 °C85 %1015.9 hPa16.1 kmNNW (340°)9.3 km/hClear
7:53 PM-10 °C-12.2 °C84 %1016.3 hPa11.3 kmCalmMostly Cloudy
8:53 PM-1.1 °C-4.4 °C79 %1014.9 hPa16.1 kmWNW (290°)24.1 km/hOvercast
9:53 PM-1.7 °C-5 °C78 %1014.9 hPa14.5 kmWNW (290°)31.5 km/h44.4 km/hOvercast
10:53 PM-2.2 °C-5 °C81 %1015.9 hPa14.5 kmWNW (290°)31.5 km/h44.4 km/hOvercast
11:53 PM-3.3 °C-7.2 °C75 %1016.6 hPa11.3 kmWNW (300°)33.3 km/hOvercast
Hourly data recorded from KCDR, located 0 kilometers away from Hay Springs, Nebraska




STORIES FROM OUR PARTNERS